TimeEDT,TemperatureF,Dew PointF,Humidity,Sea Level PressureIn,VisibilityMPH,Wind Direction,Wind SpeedMPH,Gust SpeedMPH,PrecipitationIn,Events,Conditions,WindDirDegrees,DateUTC
12:15 AM,46.4,28.4,50,29.88,10.0,West,8.1,-,N/A,,Clear,270,2013-03-21 04:15:00
12:35 AM,46.4,28.4,50,29.88,10.0,West,5.8,-,N/A,,Clear,270,2013-03-21 04:35:00
12:55 AM,44.6,28.4,53,29.88,10.0,West,6.9,-,N/A,,Clear,260,2013-03-21 04:55:00
1:15 AM,42.8,28.4,57,29.87,10.0,West,6.9,-,N/A,,Clear,260,2013-03-21 05:15:00
1:35 AM,42.8,28.4,57,29.86,10.0,West,5.8,-,N/A,,Clear,270,2013-03-21 05:35:00
1:55 AM,42.8,28.4,57,29.87,10.0,WNW,4.6,-,N/A,,Clear,290,2013-03-21 05:55:00
2:15 AM,42.8,28.4,57,29.86,10.0,WNW,6.9,-,N/A,,Clear,300,2013-03-21 06:15:00
2:35 AM,42.8,28.4,57,29.87,10.0,WNW,8.1,-,N/A,,Clear,300,2013-03-21 06:35:00
2:55 AM,42.8,28.4,57,29.87,10.0,NW,10.4,-,N/A,,Clear,310,2013-03-21 06:55:00
3:15 AM,42.8,30.2,61,29.88,10.0,NW,9.2,-,N/A,,Clear,310,2013-03-21 07:15:00
3:35 AM,42.8,30.2,61,29.88,10.0,NW,8.1,-,N/A,,Clear,310,2013-03-21 07:35:00
3:55 AM,41.0,30.2,65,29.89,10.0,WNW,5.8,-,N/A,,Clear,300,2013-03-21 07:55:00
4:15 AM,41.0,30.2,65,29.89,10.0,WNW,8.1,-,N/A,,Clear,300,2013-03-21 08:15:00
4:35 AM,39.2,30.2,70,29.88,10.0,WNW,5.8,-,N/A,,Clear,300,2013-03-21 08:35:00
4:55 AM,37.4,30.2,75,29.89,10.0,WNW,5.8,-,N/A,,Clear,290,2013-03-21 08:55:00
5:15 AM,37.4,30.2,75,29.88,10.0,West,3.5,-,N/A,,Clear,280,2013-03-21 09:15:00
5:35 AM,37.4,30.2,75,29.88,7.0,WNW,3.5,-,N/A,,Clear,300,2013-03-21 09:35:00
5:55 AM,35.6,30.2,81,29.88,10.0,West,4.6,-,N/A,,Clear,280,2013-03-21 09:55:00
6:15 AM,35.6,30.2,81,29.90,10.0,WNW,4.6,-,N/A,,Clear,300,2013-03-21 10:15:00
6:35 AM,35.6,30.2,81,29.90,10.0,West,4.6,-,N/A,,Clear,280,2013-03-21 10:35:00
6:55 AM,33.8,28.4,81,29.90,10.0,West,5.8,-,N/A,,Clear,270,2013-03-21 10:55:00
7:15 AM,33.8,28.4,81,29.90,10.0,WNW,3.5,-,N/A,,Clear,290,2013-03-21 11:15:00
7:35 AM,33.8,28.4,81,29.90,10.0,West,3.5,-,N/A,,Clear,280,2013-03-21 11:35:00
7:55 AM,33.8,28.4,81,29.90,7.0,West,4.6,-,N/A,,Clear,280,2013-03-21 11:55:00
8:15 AM,33.8,28.4,81,29.91,7.0,WNW,4.6,-,N/A,,Clear,290,2013-03-21 12:15:00
8:35 AM,35.6,30.2,81,29.91,7.0,West,6.9,-,N/A,,Clear,280,2013-03-21 12:35:00
8:55 AM,37.4,28.4,70,29.91,7.0,WNW,9.2,-,N/A,,Clear,290,2013-03-21 12:55:00
9:15 AM,41.0,28.4,61,29.90,10.0,WNW,10.4,17.3,N/A,,Clear,300,2013-03-21 13:15:00
9:35 AM,41.0,24.8,53,29.91,10.0,WNW,10.4,-,N/A,,Clear,290,2013-03-21 13:35:00
9:55 AM,42.8,23.0,46,29.91,10.0,WNW,15.0,-,N/A,,Clear,300,2013-03-21 13:55:00
10:15 AM,42.8,23.0,46,29.91,10.0,WNW,13.8,17.3,N/A,,Clear,290,2013-03-21 14:15:00
10:35 AM,44.6,23.0,43,29.92,10.0,West,12.7,-,N/A,,Clear,260,2013-03-21 14:35:00
10:55 AM,44.6,21.2,39,29.92,10.0,NW,10.4,16.1,N/A,,Clear,310,2013-03-21 14:55:00
11:15 AM,44.6,19.4,37,29.92,10.0,WNW,10.4,18.4,N/A,,Clear,290,2013-03-21 15:15:00
11:35 AM,44.6,21.2,39,29.92,10.0,West,11.5,16.1,N/A,,Clear,260,2013-03-21 15:35:00
11:55 AM,46.4,19.4,34,29.91,10.0,West,9.2,17.3,N/A,,Clear,260,2013-03-21 15:55:00
12:15 PM,48.2,21.2,34,29.91,10.0,West,13.8,19.6,N/A,,Clear,260,2013-03-21 16:15:00
12:35 PM,50.0,19.4,30,29.91,10.0,WNW,12.7,24.2,N/A,,Clear,290,2013-03-21 16:35:00
12:55 PM,48.2,19.4,32,29.90,10.0,WSW,8.1,18.4,N/A,,Clear,250,2013-03-21 16:55:00
1:15 PM,50.0,19.4,30,29.90,10.0,WSW,11.5,19.6,N/A,,Clear,240,2013-03-21 17:15:00
1:35 PM,51.8,19.4,28,29.90,10.0,West,11.5,20.7,N/A,,Clear,280,2013-03-21 17:35:00
1:55 PM,50.0,17.6,28,29.90,10.0,West,17.3,25.3,N/A,,Clear,260,2013-03-21 17:55:00
2:15 PM,51.8,17.6,26,29.90,10.0,West,17.3,24.2,N/A,,Clear,270,2013-03-21 18:15:00
2:35 PM,53.6,17.6,24,29.88,10.0,West,17.3,27.6,N/A,,Clear,280,2013-03-21 18:35:00
2:55 PM,53.6,17.6,24,29.88,10.0,WNW,19.6,24.2,N/A,,Clear,290,2013-03-21 18:55:00
3:15 PM,53.6,17.6,24,29.87,10.0,West,12.7,25.3,N/A,,Clear,270,2013-03-21 19:15:00
3:35 PM,53.6,17.6,24,29.87,10.0,WNW,15.0,25.3,N/A,,Clear,290,2013-03-21 19:35:00
3:55 PM,51.8,17.6,26,29.86,10.0,WNW,12.7,23.0,N/A,,Clear,300,2013-03-21 19:55:00
4:15 PM,53.6,17.6,24,29.86,10.0,West,15.0,27.6,N/A,,Clear,280,2013-03-21 20:15:00
4:35 PM,53.6,19.4,26,29.86,10.0,West,16.1,31.1,N/A,,Clear,270,2013-03-21 20:35:00
4:55 PM,53.6,19.4,26,29.86,10.0,West,15.0,20.7,N/A,,Clear,270,2013-03-21 20:55:00
5:15 PM,53.6,19.4,26,29.86,10.0,West,16.1,21.9,N/A,,Clear,260,2013-03-21 21:15:00
5:35 PM,53.6,19.4,26,29.87,10.0,WNW,15.0,21.9,N/A,,Clear,290,2013-03-21 21:35:00
5:55 PM,53.6,19.4,26,29.87,10.0,WNW,12.7,23.0,N/A,,Clear,290,2013-03-21 21:55:00
6:15 PM,51.8,19.4,28,29.88,10.0,WSW,11.5,-,N/A,,Clear,250,2013-03-21 22:15:00
6:35 PM,51.8,19.4,28,29.88,10.0,West,15.0,21.9,N/A,,Clear,270,2013-03-21 22:35:00
7:15 PM,50.0,19.4,30,29.90,10.0,West,9.2,-,N/A,,Clear,280,2013-03-21 23:15:00
7:35 PM,48.2,19.4,32,29.90,10.0,West,8.1,-,N/A,,Clear,270,2013-03-21 23:35:00
7:55 PM,46.4,19.4,34,29.92,10.0,West,6.9,-,N/A,,Clear,270,2013-03-21 23:55:00
8:15 PM,44.6,21.2,39,29.92,10.0,West,5.8,-,N/A,,Clear,270,2013-03-22 00:15:00
8:35 PM,44.6,21.2,39,29.92,10.0,West,4.6,-,N/A,,Clear,270,2013-03-22 00:35:00
8:55 PM,42.8,21.2,42,29.93,10.0,West,5.8,-,N/A,,Clear,270,2013-03-22 00:55:00
9:15 PM,41.0,21.2,45,29.94,10.0,West,3.5,-,N/A,,Clear,270,2013-03-22 01:15:00
9:35 PM,41.0,21.2,45,29.95,10.0,West,4.6,-,N/A,,Clear,270,2013-03-22 01:35:00
9:55 PM,41.0,21.2,45,29.95,10.0,Calm,Calm,-,N/A,,Clear,0,2013-03-22 01:55:00
10:15 PM,41.0,21.2,45,29.96,10.0,WNW,3.5,-,N/A,,Clear,290,2013-03-22 02:15:00
10:35 PM,39.2,21.2,49,29.96,10.0,Calm,Calm,-,N/A,,Clear,0,2013-03-22 02:35:00
10:55 PM,39.2,23.0,52,29.97,10.0,West,5.8,-,N/A,,Clear,270,2013-03-22 02:55:00
11:15 PM,37.4,21.2,52,29.98,10.0,WNW,4.6,-,N/A,,Clear,290,2013-03-22 03:15:00
11:35 PM,37.4,21.2,52,29.99,10.0,NW,3.5,-,N/A,,Clear,310,2013-03-22 03:35:00
11:55 PM,37.4,23.0,56,30.00,10.0,North,3.5,-,N/A,,Clear,350,2013-03-22 03:55:00